When you browse on this site, cookies collect data to enhance your experience and personalize the content and advertising you see.
Visit our Privacy Policy to learn more. By continuing to use the site, you agree to this use of cookies and data.

Hourly Weather Zasluchne

Today, 10 August, Monday

Time Temperature Precipitation Wind Pressure Humidity
00:00 +18°C° 0.1 mm 0 mps 736 mmHg 85%
01:00 +18°C° 0.1 mm 0 mps 736 mmHg 86%
02:00 +17°C° 0.1 mm 0 mps 735 mmHg 86%
03:00 +17°C° 0 mm 0 mps 735 mmHg 87%
04:00 +17°C° 0 mm 0 mps 735 mmHg 88%
05:00 +16°C° 0 mm 0 mps 735 mmHg 88%
06:00 +18°C° 0 mm 0 mps 736 mmHg 84%
07:00 +21°C° 0 mm 1 mps 736 mmHg 80%
08:00 +23°C° 0 mm 1 mps 736 mmHg 75%
09:00 +24°C° 0.2 mm 1 mps 736 mmHg 70%
10:00 +25°C° 0.2 mm 1 mps 736 mmHg 65%
11:00 +26°C° 0.2 mm 1 mps 736 mmHg 60%
12:00 +27°C° 0.9 mm 1 mps 736 mmHg 58%
13:00 +27°C° 0.9 mm 1 mps 736 mmHg 57%
14:00 +27°C° 0.9 mm 1 mps 735 mmHg 55%
15:00 +27°C° 0.6 mm 1 mps 735 mmHg 56%
16:00 +27°C° 0.6 mm 1 mps 735 mmHg 57%
17:00 +27°C° 0.6 mm 1 mps 735 mmHg 58%
18:00 +25°C° 0.5 mm 1 mps 735 mmHg 64%
19:00 +23°C° 0.5 mm 1 mps 735 mmHg 71%
20:00 +21°C° 0.5 mm 1 mps 735 mmHg 77%
21:00 +21°C° 0 mm 1 mps 735 mmHg 78%
22:00 +20°C° 0 mm 1 mps 735 mmHg 80%
23:00 +20°C° 0 mm 1 mps 735 mmHg 82%

Tomorrow, 11 August, Tuesday

Time Temperature Precipitation Wind Pressure Humidity
00:00 +19°C° 0 mm 1 mps 735 mmHg 83%
01:00 +19°C° 0 mm 1 mps 735 mmHg 85%
02:00 +19°C° 0 mm 1 mps 735 mmHg 86%
03:00 +18°C° 0 mm 1 mps 736 mmHg 87%
04:00 +18°C° 0 mm 1 mps 736 mmHg 88%
05:00 +18°C° 0 mm 1 mps 736 mmHg 89%
06:00 +19°C° 0 mm 1 mps 736 mmHg 84%
07:00 +21°C° 0 mm 1 mps 736 mmHg 80%
08:00 +23°C° 0 mm 1 mps 736 mmHg 76%
09:00 +24°C° 0.4 mm 1 mps 736 mmHg 71%
10:00 +25°C° 0.4 mm 1 mps 736 mmHg 66%
11:00 +26°C° 0.4 mm 2 mps 736 mmHg 61%
12:00 +26°C° 0.7 mm 2 mps 736 mmHg 60%
13:00 +27°C° 0.7 mm 2 mps 736 mmHg 58%
14:00 +27°C° 0.7 mm 2 mps 736 mmHg 57%
15:00 +27°C° 0.3 mm 2 mps 736 mmHg 59%
16:00 +27°C° 0.3 mm 2 mps 736 mmHg 60%
17:00 +27°C° 0.3 mm 2 mps 736 mmHg 62%
18:00 +25°C° 0.2 mm 2 mps 735 mmHg 68%
19:00 +23°C° 0.2 mm 2 mps 735 mmHg 75%
20:00 +20°C° 0.2 mm 2 mps 735 mmHg 81%
21:00 +20°C° 0 mm 2 mps 735 mmHg 84%
22:00 +19°C° 0 mm 2 mps 735 mmHg 87%
23:00 +18°C° 0 mm 2 mps 736 mmHg 91%

Day after tomorrow, 12 August, Wednesday

Time Temperature Precipitation Wind Pressure Humidity
00:00 +18°C° 0 mm 2 mps 736 mmHg 92%
01:00 +18°C° 0 mm 3 mps 736 mmHg 94%
02:00 +17°C° 0 mm 3 mps 736 mmHg 96%
03:00 +17°C° 0 mm 3 mps 736 mmHg 96%
04:00 +16°C° 0 mm 3 mps 736 mmHg 97%
05:00 +16°C° 0 mm 3 mps 736 mmHg 98%
06:00 +16°C° 0 mm 3 mps 736 mmHg 94%
07:00 +17°C° 0 mm 4 mps 737 mmHg 91%
08:00 +17°C° 0 mm 4 mps 737 mmHg 87%
09:00 +18°C° 0 mm 4 mps 737 mmHg 80%
10:00 +20°C° 0 mm 4 mps 737 mmHg 73%
11:00 +21°C° 0 mm 4 mps 738 mmHg 66%
12:00 +21°C° 0 mm 4 mps 738 mmHg 63%
13:00 +22°C° 0 mm 4 mps 738 mmHg 60%
14:00 +22°C° 0 mm 4 mps 738 mmHg 57%
15:00 +22°C° 0 mm 4 mps 738 mmHg 57%
16:00 +21°C° 0 mm 4 mps 738 mmHg 58%
17:00 +21°C° 0 mm 4 mps 738 mmHg 58%
18:00 +19°C° 0 mm 3 mps 738 mmHg 64%
19:00 +18°C° 0 mm 3 mps 738 mmHg 69%
20:00 +16°C° 0 mm 2 mps 738 mmHg 75%
21:00 +15°C° 0 mm 2 mps 738 mmHg 77%
22:00 +15°C° 0 mm 2 mps 738 mmHg 79%
23:00 +14°C° 0 mm 2 mps 739 mmHg 81%

13 August, Thursday

Time Temperature Precipitation Wind Pressure Humidity
00:00 +13°C° 0 mm 1 mps 738 mmHg 83%
01:00 +13°C° 0 mm 1 mps 738 mmHg 84%
02:00 +12°C° 0 mm 1 mps 738 mmHg 85%
03:00 +12°C° 0 mm 1 mps 738 mmHg 86%
04:00 +12°C° 0 mm 1 mps 738 mmHg 87%
05:00 +11°C° 0 mm 1 mps 738 mmHg 88%
06:00 +13°C° 0 mm 1 mps 738 mmHg 83%
07:00 +15°C° 0 mm 2 mps 738 mmHg 78%
08:00 +16°C° 0 mm 2 mps 739 mmHg 73%
09:00 +17°C° 0 mm 2 mps 739 mmHg 68%
10:00 +18°C° 0 mm 2 mps 739 mmHg 63%
11:00 +20°C° 0 mm 3 mps 739 mmHg 57%
12:00 +20°C° 0 mm 3 mps 739 mmHg 57%
13:00 +20°C° 0 mm 3 mps 738 mmHg 56%
14:00 +20°C° 0 mm 2 mps 738 mmHg 56%
15:00 +20°C° 0 mm 3 mps 738 mmHg 58%
16:00 +20°C° 0 mm 3 mps 738 mmHg 60%
17:00 +19°C° 0 mm 3 mps 738 mmHg 62%
18:00 +18°C° 0 mm 3 mps 738 mmHg 67%
19:00 +16°C° 0 mm 2 mps 738 mmHg 73%
20:00 +15°C° 0 mm 2 mps 738 mmHg 78%
21:00 +14°C° 0 mm 2 mps 738 mmHg 81%
22:00 +13°C° 0 mm 2 mps 738 mmHg 84%
23:00 +12°C° 0 mm 2 mps 738 mmHg 87%

14 August, Friday

Time Temperature Precipitation Wind Pressure Humidity
00:00 +12°C° 0 mm 2 mps 738 mmHg 87%
01:00 +10°C° 0 mm 2 mps 738 mmHg 88%
02:00 +10°C° 0 mm 2 mps 738 mmHg 88%
03:00 +10°C° 0 mm 2 mps 738 mmHg 89%
04:00 +9°C° 0 mm 2 mps 738 mmHg 89%
05:00 +9°C° 0 mm 2 mps 738 mmHg 89%
06:00 +10°C° 0 mm 2 mps 738 mmHg 83%
07:00 +13°C° 0 mm 2 mps 738 mmHg 77%
08:00 +15°C° 0 mm 2 mps 739 mmHg 71%
09:00 +16°C° 0 mm 2 mps 739 mmHg 66%
10:00 +17°C° 0 mm 2 mps 739 mmHg 62%
11:00 +18°C° 0 mm 2 mps 739 mmHg 57%
12:00 +19°C° 0 mm 2 mps 739 mmHg 56%
13:00 +19°C° 0 mm 2 mps 738 mmHg 55%
14:00 +20°C° 0 mm 2 mps 738 mmHg 54%
15:00 +20°C° 0 mm 2 mps 738 mmHg 55%
16:00 +20°C° 0 mm 2 mps 738 mmHg 56%
17:00 +19°C° 0 mm 2 mps 737 mmHg 57%
18:00 +18°C° 0 mm 2 mps 737 mmHg 63%
19:00 +16°C° 0 mm 2 mps 737 mmHg 68%
20:00 +14°C° 0 mm 2 mps 737 mmHg 74%
21:00 +14°C° 0 mm 2 mps 737 mmHg 76%
22:00 +13°C° 0 mm 2 mps 737 mmHg 77%
23:00 +12°C° 0 mm 2 mps 737 mmHg 79%

15 August, Saturday

Time Temperature Precipitation Wind Pressure Humidity
00:00 +12°C° 0 mm 2 mps 737 mmHg 79%
01:00 +12°C° 0 mm 2 mps 737 mmHg 79%
02:00 +10°C° 0 mm 2 mps 737 mmHg 80%
03:00 +10°C° 0 mm 2 mps 737 mmHg 81%
04:00 +10°C° 0 mm 2 mps 736 mmHg 82%
05:00 +9°C° 0 mm 2 mps 736 mmHg 83%
06:00 +11°C° 0 mm 3 mps 736 mmHg 78%
07:00 +13°C° 0 mm 3 mps 736 mmHg 74%
08:00 +16°C° 0 mm 3 mps 736 mmHg 70%
09:00 +18°C° 0 mm 3 mps 736 mmHg 65%
10:00 +19°C° 0 mm 3 mps 736 mmHg 60%
11:00 +21°C° 0 mm 3 mps 736 mmHg 56%
12:00 +22°C° 0 mm 3 mps 736 mmHg 54%
13:00 +23°C° 0 mm 2 mps 736 mmHg 52%
14:00 +24°C° 0 mm 2 mps 735 mmHg 50%
15:00 +24°C° 0 mm 2 mps 735 mmHg 50%
16:00 +24°C° 0 mm 1 mps 735 mmHg 51%
17:00 +24°C° 0 mm 1 mps 735 mmHg 51%
18:00 +22°C° 0 mm 1 mps 734 mmHg 58%
19:00 +19°C° 0 mm 2 mps 734 mmHg 64%
20:00 +17°C° 0 mm 2 mps 734 mmHg 70%
21:00 +16°C° 0 mm 2 mps 734 mmHg 72%
22:00 +16°C° 0 mm 2 mps 734 mmHg 73%
23:00 +15°C° 0 mm 2 mps 734 mmHg 75%
Show more